START_TIME,STEP,MOV.,M29,t_acc.,H22,t_acc.,H26,t_acc.,H30,t_acc.
1989-08-24T06:00:32.810 ,3,0,0.,24.0,0.,24.0,0.,24.0,0.,24.0
1989-08-24T06:00:56.810 ,2,1,0.,24.0,0.,24.0,0.,24.0,0.,24.0
1989-08-24T06:01:20.810 ,2,0,0.,24.0,0.,24.0,0.,24.0,0.,24.0
1989-08-24T06:01:44.810 ,1,1,0.,24.0,0.,24.0,0.,24.0,0.,24.0
1989-08-24T06:02:08.810 ,1,0,0.,24.0,0.,24.0,0.,24.0,0.,24.0
1989-08-24T06:02:32.810 ,0,1,0.,24.0,0.,24.0,0.,24.0,0.,24.0
1989-08-24T06:02:56.810 ,0,0,0.,24.0,0.,24.0,0.,24.0,0.,24.0
1989-08-24T06:03:20.810 ,0,1,0.,24.0,0.,24.0,0.,24.0,0.,24.0
1989-08-24T06:03:44.810 ,0,0,0.,24.0,0.,24.0,0.,24.0,0.,24.0
1989-08-24T06:04:08.810 ,1,1,0.,24.0,0.,24.0,0.,24.0,0.,24.0
1989-08-24T06:04:32.810 ,1,0,0.,24.0,0.,24.0,0.,24.0,0.,24.0
1989-08-24T06:04:56.810 ,2,1,0.,24.0,0.,24.0,0.,24.0,0.,24.0
1989-08-24T06:05:20.810 ,2,0,0.,24.0,0.,24.0,0.,24.0,0.,24.0
1989-08-24T06:05:44.810 ,3,1,0.,24.0,0.,24.0,0.,24.0,0.,24.0
1989-08-24T06:06:08.810 ,3,0,0.,24.0,0.,24.0,0.,24.0,0.,24.0
1989-08-24T06:06:32.810 ,4,1,0.,24.0,0.,24.0,0.,24.0,0.,24.0
1989-08-24T06:06:56.810 ,4,0,0.,24.0,0.,24.0,0.,24.0,0.,24.0
1989-08-24T06:07:20.810 ,5,1,0.,24.0,0.,24.0,0.,24.0,0.,24.0
1989-08-24T06:07:44.810 ,5,0,0.,24.0,0.,24.0,0.,24.0,0.,24.0
1989-08-24T06:08:08.810 ,6,1,0.,24.0,0.,24.0,0.,24.0,0.,24.0
1989-08-24T06:08:32.810 ,6,0,0.,24.0,0.,24.0,0.,24.0,0.,24.0
1989-08-24T06:08:56.810 ,7,1,0.,24.0,0.,24.0,0.,24.0,0.,24.0
1989-08-24T06:09:20.810 ,7,0,0.,24.0,0.,24.0,0.,24.0,0.,24.0
1989-08-24T06:09:44.810 ,7,1,0.,24.0,0.,24.0,0.,24.0,0.,24.0
1989-08-24T06:10:08.810 ,7,0,0.,24.0,0.,24.0,0.,24.0,0.,24.0
1989-08-24T06:10:32.810 ,6,1,0.,24.0,0.,24.0,0.,24.0,0.,24.0
1989-08-24T06:10:56.810 ,6,0,0.,24.0,0.,24.0,0.,24.0,0.,24.0
1989-08-24T06:11:20.810 ,5,1,0.,24.0,0.,24.0,0.,24.0,0.,24.0
1989-08-24T06:11:44.810 ,5,0,0.,24.0,0.,24.0,0.,24.0,0.,24.0
1989-08-24T06:12:08.810 ,4,1,0.,24.0,0.,24.0,0.,24.0,0.,24.0
1989-08-24T06:12:32.810 ,4,0,0.,24.0,0.,24.0,0.,24.0,0.,24.0
1989-08-24T06:12:56.810 ,3,1,0.,24.0,0.,24.0,0.,24.0,0.,24.0
1989-08-24T06:13:20.810 ,3,0,0.,24.0,0.,24.0,0.,24.0,0.,24.0
1989-08-24T06:13:44.810 ,2,1,0.,24.0,0.,24.0,0.,24.0,0.,24.0
1989-08-24T06:14:08.810 ,2,0,0.,24.0,0.,24.0,0.,24.0,0.,24.0
1989-08-24T06:14:32.810 ,1,1,0.,24.0,0.,24.0,0.,24.0,0.,24.0
1989-08-24T06:14:56.810 ,1,0,0.,24.0,0.,24.0,0.,24.0,0.,24.0
1989-08-24T06:15:20.810 ,0,1,0.,24.0,0.,24.0,0.,24.0,0.,24.0
1989-08-24T06:15:44.810 ,0,0,0.,24.0,0.,24.0,0.,24.0,0.,24.0
1989-08-24T06:16:08.810 ,0,1,0.,24.0,0.,24.0,0.,24.0,0.,24.0
1989-08-24T06:16:32.810 ,0,0,0.,24.0,0.,24.0,0.,24.0,0.,24.0
1989-08-24T06:16:56.810 ,1,1,0.,24.0,0.,24.0,0.,24.0,0.,24.0
1989-08-24T06:17:20.810 ,1,0,0.,24.0,0.,24.0,0.,24.0,0.,24.0
1989-08-24T06:17:44.810 ,2,1,0.,24.0,0.,24.0,0.,24.0,0.,24.0
1989-08-24T06:18:08.810 ,2,0,0.,24.0,0.,24.0,0.,24.0,0.,24.0
1989-08-24T06:18:32.810 ,3,1,0.,24.0,0.,24.0,0.,24.0,0.,24.0
1989-08-24T06:18:56.810 ,3,0,0.,24.0,0.,24.0,0.,24.0,0.,24.0
1989-08-24T06:19:20.810 ,4,1,0.,24.0,0.,24.0,0.,24.0,0.,24.0
1989-08-24T06:19:44.810 ,4,0,0.,24.0,0.,24.0,0.,24.0,0.,24.0
1989-08-24T06:20:08.810 ,5,1,0.,24.0,0.,24.0,0.,24.0,0.,24.0
1989-08-24T06:20:32.810 ,5,0,0.,24.0,0.,24.0,0.,24.0,0.,24.0
1989-08-24T06:20:56.810 ,6,1,0.,24.0,0.,24.0,0.,24.0,0.,24.0
1989-08-24T06:21:20.810 ,6,0,0.,24.0,0.,24.0,0.,24.0,0.,24.0
1989-08-24T06:21:44.810 ,7,1,0.,24.0,0.,24.0,0.,24.0,0.,24.0
1989-08-24T06:22:08.810 ,7,0,0.,24.0,0.,24.0,0.,24.0,0.,24.0
1989-08-24T06:22:32.810 ,7,1,0.,24.0,0.,24.0,0.,24.0,0.,24.0
1989-08-24T06:22:56.810 ,7,0,0.,24.0,0.,24.0,0.,24.0,0.,24.0
1989-08-24T06:23:20.810 ,6,1,0.,24.0,0.,24.0,0.,24.0,0.,24.0
1989-08-24T06:23:44.810 ,6,0,0.,24.0,0.,24.0,0.,24.0,0.,24.0
1989-08-24T06:24:08.810 ,5,1,0.,24.0,0.,24.0,0.,24.0,0.,24.0
1989-08-24T06:24:32.810 ,5,0,0.,24.0,0.,24.0,0.,24.0,0.,24.0
1989-08-24T06:24:56.810 ,4,1,0.,24.0,0.,24.0,0.,24.0,0.,24.0
1989-08-24T06:25:20.810 ,4,0,0.,24.0,0.,24.0,0.,24.0,0.,24.0
1989-08-24T06:25:44.810 ,3,1,0.,24.0,0.,24.0,0.,24.0,0.,24.0
1989-08-24T06:26:08.810 ,3,0,0.,24.0,0.,24.0,0.,24.0,0.,24.0
1989-08-24T06:26:32.810 ,2,1,0.,24.0,0.,24.0,0.,24.0,0.,24.0
1989-08-24T06:26:56.810 ,2,0,0.,24.0,0.,24.0,0.,24.0,0.,24.0
1989-08-24T06:27:20.810 ,1,1,0.,24.0,0.,24.0,0.,24.0,0.,24.0
1989-08-24T06:27:44.810 ,1,0,0.,24.0,0.,24.0,0.,24.0,0.,24.0
1989-08-24T06:28:08.810 ,0,1,0.,24.0,0.,24.0,0.,24.0,0.,24.0
1989-08-24T06:28:32.810 ,0,0,0.,24.0,0.,24.0,0.,24.0,0.,24.0
1989-08-24T06:28:56.810 ,0,1,0.,24.0,0.,24.0,0.,24.0,0.,24.0
1989-08-24T06:29:20.810 ,0,0,0.,24.0,0.,24.0,0.,24.0,0.,24.0
1989-08-24T06:29:44.810 ,1,1,0.,24.0,0.,24.0,0.,24.0,0.,24.0
1989-08-24T06:30:08.810 ,1,0,0.,24.0,0.,24.0,0.,24.0,0.,24.0
1989-08-24T06:30:32.810 ,2,1,0.,24.0,0.,24.0,0.,24.0,0.,24.0
1989-08-24T06:30:56.810 ,2,0,0.,24.0,0.,24.0,0.,24.0,0.,24.0
1989-08-24T06:31:20.810 ,3,1,0.,24.0,0.,24.0,0.,24.0,0.,24.0
1989-08-24T06:31:44.810 ,3,0,0.,24.0,0.,24.0,0.,24.0,0.,24.0
1989-08-24T06:32:08.810 ,4,1,0.,24.0,0.,24.0,0.,24.0,0.,24.0
1989-08-24T06:32:32.810 ,4,0,0.,24.0,0.,24.0,0.,24.0,0.,24.0
1989-08-24T06:32:56.810 ,5,1,0.,24.0,0.,24.0,0.,24.0,0.,24.0
1989-08-24T06:33:20.810 ,5,0,0.,24.0,0.,24.0,0.,24.0,0.,24.0
1989-08-24T06:33:44.810 ,6,1,0.,24.0,0.,24.0,0.,24.0,0.,24.0
1989-08-24T06:34:08.810 ,6,0,0.,24.0,0.,24.0,0.,24.0,0.,24.0
1989-08-24T06:34:32.810 ,7,1,0.,24.0,0.,24.0,0.,24.0,0.,24.0
1989-08-24T06:34:56.810 ,7,0,0.,24.0,0.,24.0,0.,24.0,0.,24.0
1989-08-24T06:35:20.810 ,7,1,0.,24.0,0.,24.0,0.,24.0,0.,24.0
1989-08-24T06:35:44.810 ,7,0,0.,24.0,0.,24.0,0.,24.0,0.,24.0
1989-08-24T06:36:08.810 ,6,1,0.,24.0,0.,24.0,0.,24.0,0.,24.0
1989-08-24T06:36:32.810 ,6,0,0.,24.0,0.,24.0,0.,24.0,0.,24.0
1989-08-24T06:36:56.810 ,5,1,0.,24.0,0.,24.0,0.,24.0,0.,24.0
1989-08-24T06:37:20.810 ,5,0,0.,24.0,0.,24.0,0.,24.0,0.,24.0
1989-08-24T06:37:44.810 ,4,1,0.,24.0,0.,24.0,0.,24.0,0.,24.0
1989-08-24T06:38:08.810 ,4,0,0.,24.0,0.,24.0,0.,24.0,0.,24.0
1989-08-24T06:38:32.810 ,3,1,0.,24.0,0.,24.0,0.,24.0,0.,24.0
1989-08-24T06:38:56.810 ,3,0,0.,24.0,0.,24.0,0.,24.0,0.,24.0
1989-08-24T06:39:20.810 ,2,1,0.,24.0,0.,24.0,0.,24.0,0.,24.0
1989-08-24T06:39:44.810 ,2,0,0.,24.0,0.,24.0,0.,24.0,0.,24.0
1989-08-24T06:40:08.810 ,1,1,0.,24.0,0.,24.0,0.,24.0,0.,24.0
1989-08-24T06:40:32.810 ,1,0,0.,24.0,0.,24.0,0.,24.0,0.,24.0
1989-08-24T06:40:56.810 ,0,1,0.,24.0,0.,24.0,0.,24.0,0.,24.0
1989-08-24T06:41:20.810 ,0,0,0.,24.0,0.,24.0,0.,24.0,0.,24.0
1989-08-24T06:41:44.810 ,0,1,0.,24.0,0.,24.0,0.,24.0,0.,24.0
1989-08-24T06:42:08.810 ,0,0,0.,24.0,0.,24.0,0.,24.0,0.,24.0
1989-08-24T06:42:32.810 ,1,1,0.,24.0,0.,24.0,0.,24.0,0.,24.0
1989-08-24T06:42:56.810 ,1,0,0.,24.0,0.,24.0,0.,24.0,0.,24.0
1989-08-24T06:43:20.810 ,2,1,0.,24.0,0.,24.0,0.,24.0,0.,24.0
1989-08-24T06:43:44.810 ,2,0,0.,24.0,0.,24.0,0.,24.0,0.,24.0
1989-08-24T06:44:08.810 ,3,1,0.,24.0,0.,24.0,0.,24.0,0.,24.0
1989-08-24T06:44:32.810 ,3,0,0.,24.0,0.,24.0,0.,24.0,0.,24.0
1989-08-24T06:44:56.810 ,4,1,0.,24.0,0.,24.0,0.,24.0,0.,24.0
1989-08-24T06:45:20.810 ,4,0,0.,24.0,0.,24.0,0.,24.0,0.,24.0
1989-08-24T06:45:44.810 ,5,1,0.,24.0,0.,24.0,0.,24.0,0.,24.0
1989-08-24T06:46:08.810 ,5,0,0.,24.0,0.,24.0,0.,24.0,0.,24.0
1989-08-24T06:46:32.810 ,6,1,0.,24.0,0.,24.0,0.,24.0,0.,24.0
1989-08-24T06:46:56.810 ,6,0,0.,24.0,0.,24.0,0.,24.0,0.,24.0
1989-08-24T06:47:20.810 ,7,1,0.,24.0,0.,24.0,0.,24.0,0.,24.0
1989-08-24T06:47:44.810 ,7,0,0.,24.0,0.,24.0,0.,24.0,0.,24.0
1989-08-24T06:48:08.810 ,7,1,0.,24.0,0.,24.0,0.,24.0,0.,24.0
1989-08-24T06:48:32.810 ,7,0,0.,24.0,0.,24.0,0.,24.0,0.,24.0
1989-08-24T06:48:56.810 ,6,1,0.,24.0,0.,24.0,0.,24.0,0.,24.0
1989-08-24T06:49:20.810 ,6,0,0.,24.0,0.,24.0,0.,24.0,0.,24.0
1989-08-24T06:49:44.810 ,5,1,0.,24.0,0.,24.0,0.,24.0,0.,24.0
1989-08-24T06:50:08.810 ,5,0,0.,24.0,0.,24.0,0.,24.0,0.,24.0
1989-08-24T06:50:32.810 ,4,1,0.,24.0,0.,24.0,0.,24.0,0.,24.0
1989-08-24T06:50:56.810 ,4,0,0.,24.0,0.,24.0,0.,24.0,0.,24.0
1989-08-24T06:51:20.810 ,3,1,0.,24.0,0.,24.0,0.,24.0,0.,24.0
1989-08-24T06:51:44.810 ,3,0,0.,24.0,0.,24.0,0.,24.0,0.,24.0
1989-08-24T06:52:08.810 ,2,1,0.,24.0,0.,24.0,0.,24.0,0.,24.0
1989-08-24T06:52:32.810 ,2,0,0.,24.0,0.,24.0,0.,24.0,0.,24.0
1989-08-24T06:52:56.810 ,1,1,0.,24.0,0.,24.0,0.,24.0,0.,24.0
1989-08-24T06:53:20.810 ,1,0,0.,24.0,0.,24.0,0.,24.0,0.,24.0
1989-08-24T06:53:44.810 ,0,1,0.,24.0,0.,24.0,0.,24.0,0.,24.0
1989-08-24T06:54:08.810 ,0,0,0.,24.0,0.,24.0,0.,24.0,0.,24.0
1989-08-24T06:54:32.810 ,0,1,0.,24.0,0.,24.0,0.,24.0,0.,24.0
1989-08-24T06:54:56.810 ,0,0,0.,24.0,0.,24.0,0.,24.0,0.,24.0
1989-08-24T06:55:20.810 ,1,1,0.,24.0,0.,24.0,0.,24.0,0.,24.0
1989-08-24T06:55:44.810 ,1,0,0.,24.0,0.,24.0,0.,24.0,0.,24.0
1989-08-24T06:56:08.810 ,2,1,0.,24.0,0.,24.0,0.,24.0,0.,24.0
1989-08-24T06:56:32.810 ,2,0,0.,24.0,0.,24.0,0.,24.0,0.,24.0
1989-08-24T06:56:56.810 ,3,1,0.,24.0,0.,24.0,0.,24.0,0.,24.0
1989-08-24T06:57:20.810 ,3,0,0.,24.0,0.,24.0,0.,24.0,0.,24.0
1989-08-24T06:57:44.810 ,4,1,0.,24.0,0.,24.0,0.,24.0,0.,24.0
1989-08-24T06:58:08.810 ,4,0,0.,24.0,0.,24.0,0.,24.0,0.,24.0
1989-08-24T06:58:32.810 ,5,1,0.,24.0,0.,24.0,0.,24.0,0.,24.0
1989-08-24T06:58:56.810 ,5,0,0.,24.0,0.,24.0,0.,24.0,0.,24.0
1989-08-24T06:59:20.810 ,6,1,0.,24.0,0.,24.0,0.,24.0,0.,24.0
1989-08-24T06:59:44.810 ,6,0,0.,24.0,0.,24.0,0.,24.0,0.,24.0
1989-08-24T07:00:08.810 ,7,1,0.,24.0,0.,24.0,0.,24.0,0.,24.0
1989-08-24T07:00:32.810 ,7,0,0.,24.0,0.,24.0,0.,24.0,0.,24.0
1989-08-24T07:00:56.810 ,7,1,0.,24.0,0.,24.0,0.,24.0,0.,24.0
1989-08-24T07:01:20.810 ,7,0,0.,24.0,0.,24.0,0.,24.0,0.,24.0
1989-08-24T07:01:44.810 ,6,1,0.,24.0,0.,24.0,0.,24.0,0.,24.0
1989-08-24T07:02:08.810 ,6,0,0.,24.0,0.,24.0,0.,24.0,0.,24.0
1989-08-24T07:02:32.810 ,5,1,0.,24.0,0.,24.0,0.,24.0,0.,24.0
1989-08-24T07:02:56.810 ,5,0,0.,24.0,0.,24.0,0.,24.0,0.,24.0
1989-08-24T07:03:20.810 ,4,1,0.,24.0,0.,24.0,0.,24.0,0.,24.0
1989-08-24T07:03:44.810 ,4,0,0.,24.0,0.,24.0,0.,24.0,0.,24.0
1989-08-24T07:04:08.810 ,3,1,0.,24.0,0.,24.0,0.,24.0,0.,24.0
1989-08-24T07:04:32.810 ,3,0,0.,24.0,0.,24.0,0.,24.0,0.,24.0
1989-08-24T07:04:56.810 ,2,1,0.,24.0,0.,24.0,0.,24.0,0.,24.0
1989-08-24T07:05:20.810 ,2,0,0.,24.0,0.,24.0,0.,24.0,0.,24.0
1989-08-24T07:05:44.810 ,1,1,0.,24.0,0.,24.0,0.,24.0,0.,24.0
1989-08-24T07:06:08.810 ,1,0,0.,24.0,0.,24.0,0.,24.0,0.,24.0
1989-08-24T07:06:32.810 ,0,1,0.,24.0,0.,24.0,0.,24.0,0.,24.0
1989-08-24T07:06:56.810 ,0,0,0.,24.0,0.,24.0,0.,24.0,0.,24.0
1989-08-24T07:07:20.810 ,0,1,0.,24.0,0.,24.0,0.,24.0,0.,24.0
1989-08-24T07:07:44.810 ,0,0,0.,24.0,0.,24.0,0.,24.0,0.,24.0
1989-08-24T07:08:08.810 ,1,1,0.,24.0,0.,24.0,0.,24.0,0.,24.0
1989-08-24T07:08:32.810 ,1,0,0.,24.0,0.,24.0,0.,24.0,0.,24.0
1989-08-24T07:08:56.810 ,2,1,0.,24.0,0.,24.0,0.,24.0,0.,24.0
1989-08-24T07:09:20.810 ,2,0,0.,24.0,0.,24.0,0.,24.0,0.,24.0
1989-08-24T07:09:44.810 ,3,1,0.,24.0,0.,24.0,0.,24.0,0.,24.0
1989-08-24T07:10:08.810 ,3,0,0.,24.0,0.,24.0,0.,24.0,0.,24.0
1989-08-24T07:10:32.810 ,4,1,0.,24.0,0.,24.0,0.,24.0,0.,24.0
1989-08-24T07:10:56.810 ,4,0,0.,24.0,0.,24.0,0.,24.0,0.,24.0
1989-08-24T07:11:20.810 ,5,1,0.,24.0,0.,24.0,0.,24.0,0.,24.0
1989-08-24T07:11:44.810 ,5,0,0.,24.0,0.,24.0,0.,24.0,0.,24.0
1989-08-24T07:12:08.810 ,6,1,0.,24.0,0.,24.0,0.,24.0,0.,24.0
1989-08-24T07:12:32.810 ,6,0,0.,24.0,0.,24.0,0.,24.0,0.,24.0
1989-08-24T07:12:56.810 ,7,1,0.,24.0,0.,24.0,0.,24.0,0.,24.0
1989-08-24T07:13:20.810 ,7,0,0.,24.0,0.,24.0,0.,24.0,0.,24.0
1989-08-24T07:13:44.810 ,7,1,0.,24.0,0.,24.0,0.,24.0,0.,24.0
1989-08-24T07:14:08.810 ,7,0,0.,24.0,0.,24.0,0.,24.0,0.,24.0
1989-08-24T07:14:32.810 ,6,1,0.,24.0,0.,24.0,0.,24.0,0.,24.0
1989-08-24T07:14:56.810 ,6,0,0.,24.0,0.,24.0,0.,24.0,0.,24.0
1989-08-24T07:15:20.810 ,5,1,0.,24.0,0.,24.0,0.,24.0,0.,24.0
1989-08-24T07:15:44.810 ,5,0,0.,24.0,0.,24.0,0.,24.0,0.,24.0
1989-08-24T07:16:08.810 ,4,1,0.,24.0,0.,24.0,0.,24.0,0.,24.0
1989-08-24T07:16:32.810 ,4,0,0.,24.0,0.,24.0,0.,24.0,0.,24.0
1989-08-24T07:16:56.810 ,3,1,0.,24.0,0.,24.0,0.,24.0,0.,24.0
1989-08-24T07:17:20.810 ,3,0,0.,24.0,0.,24.0,0.,24.0,0.,24.0
1989-08-24T07:17:44.810 ,2,1,0.,24.0,0.,24.0,0.,24.0,0.,24.0
1989-08-24T07:18:08.810 ,2,0,0.,24.0,0.,24.0,0.,24.0,0.,24.0
1989-08-24T07:18:32.810 ,1,1,0.,24.0,0.,24.0,0.,24.0,0.,24.0
1989-08-24T07:18:56.810 ,1,0,0.,24.0,0.,24.0,0.,24.0,0.,24.0
1989-08-24T07:19:20.810 ,0,1,0.,24.0,0.,24.0,0.,24.0,0.,24.0
1989-08-24T07:19:44.810 ,0,0,0.,24.0,0.,24.0,0.,24.0,0.,24.0
1989-08-24T07:20:08.810 ,0,1,0.,24.0,0.,24.0,0.,24.0,0.,24.0
1989-08-24T07:20:32.810 ,0,0,0.,24.0,0.,24.0,0.,24.0,0.,24.0
1989-08-24T07:20:56.810 ,1,1,0.,24.0,0.,24.0,0.,24.0,0.,24.0
1989-08-24T07:21:20.810 ,1,0,0.,24.0,0.,24.0,0.,24.0,0.,24.0
1989-08-24T07:21:44.810 ,2,1,0.,24.0,0.,24.0,0.,24.0,0.,24.0
1989-08-24T07:22:08.810 ,2,0,0.,24.0,0.,24.0,0.,24.0,0.,24.0
1989-08-24T07:22:32.810 ,3,1,0.,24.0,0.,24.0,0.,24.0,0.,24.0
1989-08-24T07:22:56.810 ,3,0,0.,24.0,0.,24.0,0.,24.0,0.,24.0
1989-08-24T07:23:20.810 ,4,1,0.,24.0,0.,24.0,0.,24.0,0.,24.0
1989-08-24T07:23:44.810 ,4,0,0.,24.0,0.,24.0,0.,24.0,0.,24.0
1989-08-24T07:24:08.810 ,5,1,0.,24.0,0.,24.0,0.,24.0,0.,24.0
1989-08-24T07:24:32.810 ,5,0,0.,24.0,0.,24.0,0.,24.0,0.,24.0
1989-08-24T07:24:56.810 ,6,1,0.,24.0,0.,24.0,0.,24.0,0.,24.0
1989-08-24T07:25:20.810 ,6,0,0.,24.0,0.,24.0,0.,24.0,0.,24.0
1989-08-24T07:25:44.810 ,7,1,0.,24.0,0.,24.0,0.,24.0,0.,24.0
1989-08-24T07:26:08.810 ,7,0,0.,24.0,0.,24.0,0.,24.0,0.,24.0
1989-08-24T07:26:32.810 ,7,1,0.,24.0,0.,24.0,0.,24.0,0.,24.0
1989-08-24T07:26:56.810 ,7,0,0.,24.0,0.,24.0,0.,24.0,0.,24.0
1989-08-24T07:27:20.810 ,6,1,0.,24.0,0.,24.0,0.,24.0,0.,24.0
1989-08-24T07:27:44.810 ,6,0,0.,24.0,0.,24.0,0.,24.0,0.,24.0
1989-08-24T07:28:08.810 ,5,1,0.,24.0,0.,24.0,0.,24.0,0.,24.0
1989-08-24T07:28:32.810 ,5,0,0.,24.0,0.,24.0,0.,24.0,0.,24.0
1989-08-24T07:28:56.810 ,4,1,0.,24.0,0.,24.0,0.,24.0,0.,24.0
1989-08-24T07:29:20.810 ,4,0,0.,24.0,0.,24.0,0.,24.0,0.,24.0
1989-08-24T07:29:44.810 ,3,1,0.,24.0,0.,24.0,0.,24.0,0.,24.0
1989-08-24T07:30:08.810 ,3,0,0.,24.0,0.,24.0,0.,24.0,0.,24.0
1989-08-24T07:30:32.810 ,2,1,0.,24.0,0.,24.0,0.,24.0,0.,24.0
1989-08-24T07:30:56.810 ,2,0,0.,24.0,0.,24.0,0.,24.0,0.,24.0
1989-08-24T07:31:20.810 ,1,1,0.,24.0,0.,24.0,0.,24.0,0.,24.0
1989-08-24T07:31:44.810 ,1,0,0.,24.0,0.,24.0,0.,24.0,0.,24.0
1989-08-24T07:32:08.810 ,0,1,0.,24.0,0.,24.0,0.,24.0,0.,24.0
1989-08-24T07:32:32.810 ,0,0,0.,24.0,0.,24.0,0.,24.0,0.,24.0
1989-08-24T07:32:56.810 ,0,1,0.,24.0,0.,24.0,0.,24.0,0.,24.0
1989-08-24T07:33:20.810 ,0,0,0.,24.0,0.,24.0,0.,24.0,0.,24.0
1989-08-24T07:33:44.810 ,1,1,0.,24.0,0.,24.0,0.,24.0,0.,24.0
1989-08-24T07:34:08.810 ,1,0,0.,24.0,0.,24.0,0.,24.0,0.,24.0
1989-08-24T07:34:32.810 ,2,1,0.,24.0,0.,24.0,0.,24.0,0.,24.0
1989-08-24T07:34:56.810 ,2,0,0.,24.0,0.,24.0,0.,24.0,0.,24.0
1989-08-24T07:35:20.810 ,3,1,0.,24.0,0.,24.0,0.,24.0,0.,24.0
1989-08-24T07:35:44.810 ,3,0,0.,24.0,0.,24.0,0.,24.0,0.,24.0
1989-08-24T07:36:08.810 ,4,1,0.,24.0,0.,24.0,0.,24.0,0.,24.0
1989-08-24T07:36:32.810 ,4,0,0.,24.0,0.,24.0,0.,24.0,0.,24.0
1989-08-24T07:36:56.810 ,5,1,0.,24.0,0.,24.0,0.,24.0,0.,24.0
1989-08-24T07:37:20.810 ,5,0,0.,24.0,0.,24.0,0.,24.0,0.,24.0
1989-08-24T07:37:44.810 ,6,1,0.,24.0,0.,24.0,0.,24.0,0.,24.0
1989-08-24T07:38:08.810 ,6,0,0.,24.0,0.,24.0,0.,24.0,0.,24.0
1989-08-24T07:38:32.810 ,7,1,0.,24.0,0.,24.0,0.,24.0,0.,24.0
1989-08-24T07:38:56.810 ,7,0,0.,24.0,0.,24.0,0.,24.0,0.,24.0
1989-08-24T07:39:20.810 ,7,1,0.,24.0,0.,24.0,0.,24.0,0.,24.0
1989-08-24T07:39:44.810 ,7,0,0.,24.0,0.,24.0,0.,24.0,0.,24.0
1989-08-24T07:40:08.810 ,6,1,0.,24.0,0.,24.0,0.,24.0,0.,24.0
1989-08-24T07:40:32.810 ,6,0,0.,24.0,0.,24.0,0.,24.0,0.,24.0
1989-08-24T07:40:56.800 ,5,1,0.,24.0,0.,24.0,0.,24.0,0.,24.0
1989-08-24T07:41:20.800 ,5,0,0.,24.0,0.,24.0,0.,24.0,0.,24.0
1989-08-24T07:41:44.800 ,4,1,0.,24.0,0.,24.0,0.,24.0,0.,24.0
1989-08-24T07:42:08.800 ,4,0,0.,24.0,0.,24.0,0.,24.0,0.,24.0
1989-08-24T07:42:32.800 ,3,1,0.,24.0,0.,24.0,0.,24.0,0.,24.0
1989-08-24T07:42:56.800 ,3,0,0.,24.0,0.,24.0,0.,24.0,0.,24.0
1989-08-24T07:43:20.800 ,2,1,0.,24.0,0.,24.0,0.,24.0,0.,24.0
1989-08-24T07:43:44.800 ,2,0,0.,24.0,0.,24.0,0.,24.0,0.,24.0
1989-08-24T07:44:08.800 ,1,1,0.,24.0,0.,24.0,0.,24.0,0.,24.0
1989-08-24T07:44:32.800 ,1,0,0.,24.0,0.,24.0,0.,24.0,0.,24.0
1989-08-24T07:44:56.800 ,0,1,0.,24.0,0.,24.0,0.,24.0,0.,24.0
1989-08-24T07:45:20.800 ,0,0,0.,24.0,0.,24.0,0.,24.0,0.,24.0
1989-08-24T07:45:44.800 ,0,1,0.,24.0,0.,24.0,0.,24.0,0.,24.0
1989-08-24T07:46:08.800 ,0,0,0.,24.0,0.,24.0,0.,24.0,0.,24.0
1989-08-24T07:46:32.800 ,1,1,0.,24.0,0.,24.0,0.,24.0,0.,24.0
1989-08-24T07:46:56.800 ,1,0,0.,24.0,0.,24.0,0.,24.0,0.,24.0
1989-08-24T07:47:20.800 ,2,1,0.,24.0,0.,24.0,0.,24.0,0.,24.0
1989-08-24T07:47:44.800 ,2,0,0.,24.0,0.,24.0,0.,24.0,0.,24.0
1989-08-24T07:48:08.800 ,3,1,0.,24.0,0.,24.0,0.,24.0,0.,24.0
1989-08-24T07:48:32.800 ,3,0,0.,24.0,0.,24.0,0.,24.0,0.,24.0
1989-08-24T07:48:56.800 ,4,1,0.,24.0,0.,24.0,0.,24.0,0.,24.0
1989-08-24T07:49:20.800 ,4,0,0.,24.0,0.,24.0,0.,24.0,0.,24.0
1989-08-24T07:49:44.800 ,5,1,0.,24.0,0.,24.0,0.,24.0,0.,24.0
1989-08-24T07:50:08.800 ,5,0,0.,24.0,0.,24.0,0.,24.0,0.,24.0
1989-08-24T07:50:32.800 ,6,1,0.,24.0,0.,24.0,0.,24.0,0.,24.0
1989-08-24T07:50:56.800 ,6,0,0.,24.0,0.,24.0,0.,24.0,0.,24.0
1989-08-24T07:51:20.800 ,7,1,0.,24.0,0.,24.0,0.,24.0,0.,24.0
1989-08-24T07:51:44.800 ,7,0,0.,24.0,0.,24.0,0.,24.0,0.,24.0
1989-08-24T07:52:08.800 ,7,1,0.,24.0,0.,24.0,0.,24.0,0.,24.0
1989-08-24T07:52:32.800 ,7,0,0.,24.0,0.,24.0,0.,24.0,0.,24.0
1989-08-24T07:52:56.800 ,6,1,0.,24.0,0.,24.0,0.,24.0,0.,24.0
1989-08-24T07:53:20.800 ,6,0,0.,24.0,0.,24.0,0.,24.0,0.,24.0
1989-08-24T07:53:44.800 ,5,1,0.,24.0,0.,24.0,0.,24.0,0.,24.0
1989-08-24T07:54:08.800 ,5,0,0.,24.0,0.,24.0,0.,24.0,0.,24.0
1989-08-24T07:54:32.800 ,4,1,0.,24.0,0.,24.0,0.,24.0,0.,24.0
1989-08-24T07:54:56.800 ,4,0,0.,24.0,0.,24.0,0.,24.0,0.,24.0
1989-08-24T07:55:20.800 ,3,1,0.,24.0,0.,24.0,0.,24.0,0.,24.0
1989-08-24T07:55:44.800 ,3,0,0.,24.0,0.,24.0,0.,24.0,0.,24.0
1989-08-24T07:56:08.800 ,2,1,0.,24.0,0.,24.0,0.,24.0,0.,24.0
1989-08-24T07:56:32.800 ,2,0,0.,24.0,0.,24.0,0.,24.0,0.,24.0
1989-08-24T07:56:56.800 ,1,1,0.,24.0,0.,24.0,0.,24.0,0.,24.0
1989-08-24T07:57:20.800 ,1,0,0.,24.0,0.,24.0,0.,24.0,0.,24.0
1989-08-24T07:57:44.800 ,0,1,0.,24.0,0.,24.0,0.,24.0,0.,24.0
1989-08-24T07:58:08.800 ,0,0,0.,24.0,0.,24.0,0.,24.0,0.,24.0
1989-08-24T07:58:32.800 ,0,1,0.,24.0,0.,24.0,0.,24.0,0.,24.0
1989-08-24T07:58:56.800 ,0,0,0.,24.0,0.,24.0,0.,24.0,0.,24.0
1989-08-24T07:59:20.800 ,1,1,0.,24.0,0.,24.0,0.,24.0,0.,24.0
1989-08-24T07:59:44.800 ,1,0,0.,24.0,0.,24.0,0.,24.0,0.,24.0
1989-08-24T08:00:08.800 ,2,1,0.,24.0,0.,24.0,0.,24.0,0.,24.0
1989-08-24T08:00:32.800 ,2,0,0.,24.0,0.,24.0,0.,24.0,0.,24.0
1989-08-24T08:00:56.800 ,3,1,0.,24.0,0.,24.0,0.,24.0,0.,24.0
1989-08-24T08:01:20.800 ,3,0,0.,24.0,0.,24.0,0.,24.0,0.,24.0
1989-08-24T08:01:44.800 ,4,1,0.,24.0,0.,24.0,0.,24.0,0.,24.0
1989-08-24T08:02:08.800 ,4,0,0.,24.0,0.,24.0,0.,24.0,0.,24.0
1989-08-24T08:02:32.800 ,5,1,0.,24.0,0.,24.0,0.,24.0,0.,24.0
1989-08-24T08:02:56.800 ,5,0,0.,24.0,0.,24.0,0.,24.0,0.,24.0
1989-08-24T08:03:20.800 ,6,1,0.,24.0,0.,24.0,0.,24.0,0.,24.0
1989-08-24T08:03:44.800 ,6,0,0.,24.0,0.,24.0,0.,24.0,0.,24.0
1989-08-24T08:04:08.800 ,7,1,0.,24.0,0.,24.0,0.,24.0,0.,24.0
1989-08-24T08:04:32.800 ,7,0,0.,24.0,0.,24.0,0.,24.0,0.,24.0
1989-08-24T08:04:56.800 ,7,1,0.,24.0,0.,24.0,0.,24.0,0.,24.0
1989-08-24T08:05:20.800 ,7,0,0.,24.0,0.,24.0,0.,24.0,0.,24.0
1989-08-24T08:05:44.800 ,6,1,0.,24.0,0.,24.0,0.,24.0,0.,24.0
1989-08-24T08:06:08.800 ,6,0,0.,24.0,0.,24.0,0.,24.0,0.,24.0
1989-08-24T08:06:32.800 ,5,1,0.,24.0,0.,24.0,0.,24.0,0.,24.0
1989-08-24T08:06:56.800 ,5,0,0.,24.0,0.,24.0,0.,24.0,0.,24.0
1989-08-24T08:07:20.800 ,4,1,0.,24.0,0.,24.0,0.,24.0,0.,24.0
1989-08-24T08:07:44.800 ,4,0,0.,24.0,0.,24.0,0.,24.0,0.,24.0
1989-08-24T08:08:08.800 ,3,1,0.,24.0,0.,24.0,0.,24.0,0.,24.0
1989-08-24T08:08:32.800 ,3,0,0.,24.0,0.,24.0,0.,24.0,0.,24.0
1989-08-24T08:08:56.800 ,2,1,0.,24.0,0.,24.0,0.,24.0,0.,24.0
1989-08-24T08:09:20.800 ,2,0,0.,24.0,0.,24.0,0.,24.0,0.,24.0
1989-08-24T08:09:44.800 ,1,1,0.,24.0,0.,24.0,0.,24.0,0.,24.0
1989-08-24T08:10:08.800 ,1,0,0.,24.0,0.,24.0,0.,24.0,0.,24.0
1989-08-24T08:10:32.800 ,0,1,0.,24.0,0.,24.0,0.,24.0,0.,24.0
1989-08-24T08:10:56.800 ,0,0,0.,24.0,0.,24.0,0.,24.0,0.,24.0
1989-08-24T08:11:20.800 ,0,1,0.,24.0,0.,24.0,0.,24.0,0.,24.0
1989-08-24T08:11:44.800 ,0,0,0.,24.0,0.,24.0,0.,24.0,0.,24.0
1989-08-24T08:12:08.800 ,1,1,0.,24.0,0.,24.0,0.,24.0,0.,24.0
1989-08-24T08:12:32.800 ,1,0,0.,24.0,0.,24.0,0.,24.0,0.,24.0
1989-08-24T08:12:56.800 ,2,1,0.,24.0,0.,24.0,0.,24.0,0.,24.0
1989-08-24T08:13:20.800 ,2,0,0.,24.0,0.,24.0,0.,24.0,0.,24.0
1989-08-24T08:13:44.800 ,3,1,0.,24.0,0.,24.0,0.,24.0,0.,24.0
1989-08-24T08:14:08.800 ,3,0,0.,24.0,0.,24.0,0.,24.0,0.,24.0
1989-08-24T08:14:32.800 ,4,1,0.,24.0,0.,24.0,0.,24.0,0.,24.0
1989-08-24T08:14:56.800 ,4,0,0.,24.0,0.,24.0,0.,24.0,0.,24.0
1989-08-24T08:15:20.800 ,5,1,0.,24.0,0.,24.0,0.,24.0,0.,24.0
1989-08-24T08:15:44.800 ,5,0,0.,24.0,0.,24.0,0.,24.0,0.,24.0
1989-08-24T08:16:08.800 ,6,1,0.,24.0,0.,24.0,0.,24.0,0.,24.0
1989-08-24T08:16:32.800 ,6,0,0.,24.0,0.,24.0,0.,24.0,0.,24.0
1989-08-24T08:16:56.800 ,7,1,0.,24.0,0.,24.0,0.,24.0,0.,24.0
1989-08-24T08:17:20.800 ,7,0,0.,24.0,0.,24.0,0.,24.0,0.,24.0
1989-08-24T08:17:44.800 ,7,1,0.,24.0,0.,24.0,0.,24.0,0.,24.0
1989-08-24T08:18:08.800 ,7,0,0.,24.0,0.,24.0,0.,24.0,0.,24.0
1989-08-24T08:18:32.800 ,6,1,0.,24.0,0.,24.0,0.,24.0,0.,24.0
1989-08-24T08:18:56.800 ,6,0,0.,24.0,0.,24.0,0.,24.0,0.,24.0
1989-08-24T08:19:20.800 ,5,1,0.,24.0,0.,24.0,0.,24.0,0.,24.0
1989-08-24T08:19:44.800 ,5,0,0.,24.0,0.,24.0,0.,24.0,0.,24.0
1989-08-24T08:20:08.800 ,4,1,0.,24.0,0.,24.0,0.,24.0,0.,24.0
1989-08-24T08:20:32.800 ,4,0,0.,24.0,0.,24.0,0.,24.0,0.,24.0
1989-08-24T08:20:56.800 ,3,1,0.,24.0,0.,24.0,0.,24.0,0.,24.0
1989-08-24T08:21:20.800 ,3,0,0.,24.0,0.,24.0,0.,24.0,0.,24.0
1989-08-24T08:21:44.800 ,2,1,0.,24.0,0.,24.0,0.,24.0,0.,24.0
1989-08-24T08:22:08.800 ,2,0,0.,24.0,0.,24.0,0.,24.0,0.,24.0
1989-08-24T08:22:32.800 ,1,1,0.,24.0,0.,24.0,0.,24.0,0.,24.0
1989-08-24T08:22:56.800 ,1,0,0.,24.0,0.,24.0,0.,24.0,0.,24.0
1989-08-24T08:23:20.800 ,0,1,0.,24.0,0.,24.0,0.,24.0,0.,24.0
1989-08-24T08:23:44.800 ,0,0,0.,24.0,0.,24.0,0.,24.0,0.,24.0
1989-08-24T08:24:08.800 ,0,1,0.,24.0,0.,24.0,0.,24.0,0.,24.0
1989-08-24T08:24:32.800 ,0,0,0.,24.0,0.,24.0,0.,24.0,0.,24.0
1989-08-24T08:24:56.800 ,1,1,0.,24.0,0.,24.0,0.,24.0,0.,24.0
1989-08-24T08:25:20.800 ,1,0,0.,24.0,0.,24.0,0.,24.0,0.,24.0
1989-08-24T08:25:44.800 ,2,1,0.,24.0,0.,24.0,0.,24.0,0.,24.0
1989-08-24T08:26:08.800 ,2,0,0.,24.0,0.,24.0,0.,24.0,0.,24.0
1989-08-24T08:26:32.800 ,3,1,0.,24.0,0.,24.0,0.,24.0,0.,24.0
1989-08-24T08:26:56.800 ,3,0,0.,24.0,0.,24.0,0.,24.0,0.,24.0
1989-08-24T08:27:20.800 ,4,1,0.,24.0,0.,24.0,0.,24.0,0.,24.0
1989-08-24T08:27:44.800 ,4,0,0.,24.0,0.,24.0,0.,24.0,0.,24.0
1989-08-24T08:28:08.800 ,5,1,0.,24.0,0.,24.0,0.,24.0,0.,24.0
1989-08-24T08:28:32.800 ,5,0,0.,24.0,0.,24.0,0.,24.0,0.,24.0
1989-08-24T08:28:56.800 ,6,1,0.,24.0,0.,24.0,0.,24.0,0.,24.0
1989-08-24T08:29:20.800 ,6,0,0.,24.0,0.,24.0,0.,24.0,0.,24.0
1989-08-24T08:29:44.800 ,7,1,0.,24.0,0.,24.0,0.,24.0,0.,24.0
1989-08-24T08:30:08.800 ,7,0,0.,24.0,0.,24.0,0.,24.0,0.,24.0
1989-08-24T08:30:32.800 ,7,1,0.,24.0,0.,24.0,0.,24.0,0.,24.0
1989-08-24T08:30:56.800 ,7,0,0.,24.0,0.,24.0,0.,24.0,0.,24.0
1989-08-24T08:31:20.800 ,6,1,0.,24.0,0.,24.0,0.,24.0,0.,24.0
1989-08-24T08:31:44.800 ,0,0,0.,24.0,0.,24.0,0.,24.0,0.,24.0
1989-08-24T08:32:45.400 ,0,0,,0,,0,,0,,0
1989-08-24T08:32:56.800 ,4,1,0.,24.0,0.,24.0,0.,24.0,0.,24.0
1989-08-24T08:33:20.800 ,4,0,0.,24.0,0.,24.0,0.,24.0,0.,24.0
1989-08-24T08:33:44.800 ,3,1,0.,24.0,0.,24.0,0.,24.0,0.,24.0
1989-08-24T08:34:08.800 ,3,0,0.,24.0,0.,24.0,0.,24.0,0.,24.0
1989-08-24T08:34:32.800 ,2,1,0.,24.0,0.,24.0,0.,24.0,0.,24.0
1989-08-24T08:34:56.800 ,2,0,0.,24.0,0.,24.0,0.,24.0,0.,24.0